#timestamp,LO_Frequency,Hit 
1505988015.6,286046997.2,N
1505988035.4,286046996.8,N
1505988055.3,286047000.0,N
1505988075.1,286047001.2,N
1505988076.0,286047001.2,N
1505988095.8,286046997.1,N
1505988115.7,286046994.3,N
1505988135.5,286046993.8,N
1505988155.3,286046995.9,N
1505988175.1,286046993.3,N
1505988195.9,286046996.0,N
1505988215.7,286046996.3,N
1505988235.5,286046993.8,N
1505988255.4,286046994.1,N
1505988275.2,286046991.7,P
1505988295.0,286046997.5,N
1505988296.0,286046997.5,N
1505988315.8,286046997.8,N
1505988335.6,286046994.9,N
1505988355.4,286046997.9,N
1505988375.3,286046997.9,N
1505988395.1,286046995.1,N
1505988415.8,286046996.8,N
1505988435.7,286046997.1,N
1505988455.5,286046995.0,N
1505988475.3,286046996.8,N
1505988495.2,286047000.0,N
1505988515.9,286047002.4,N
1505988535.7,286046998.8,N
1505988555.6,286046997.7,N
1505988575.4,286046995.2,N
1505988595.2,286046996.5,N
1505988615.0,286046997.6,N
1505988615.9,286046997.6,N
1505988635.8,286046995.6,N
1505988655.6,286046996.6,N
1505988675.4,286046999.0,N
1505988695.3,286046997.4,N
1505988715.1,286046997.7,N
1505988735.8,286046997.7,N
1505988755.7,286046995.3,N
1505988775.5,286046994.6,N
1505988795.3,286046993.6,P
1505988815.2,286046995.4,N
1505988835.9,286046995.9,N
1505988855.7,286046995.7,P
1505988875.6,286047007.5,P
1505988895.4,286047002.6,N
1505988915.2,286047000.8,N
1505988935.1,286047000.2,N
1505988936.0,286047000.2,N
1505988955.8,286046999.9,N
1505988975.6,286046996.6,N
1505988995.5,286046995.0,N
1505989015.3,286046995.6,N
1505989035.1,286046996.3,N
1505989055.9,286046996.1,N
1505989075.7,286046995.6,N
1505989095.5,286046996.0,N
1505989115.3,286046993.7,N
1505989135.2,286046993.7,N
1505989155.0,286046993.9,N
1505989155.9,286046993.9,N
1505989175.7,286046994.5,N
1505989195.6,286046996.3,N
1505989215.4,286046993.4,N
1505989235.2,286046993.3,N
1505989255.1,286046995.2,N
1505989256.0,286046995.2,N
1505989275.8,286046997.7,N
1505989295.6,286046997.6,N
1505989315.5,286046995.4,N
1505989335.3,286046995.5,N
1505989355.1,286046995.4,N
1505989375.8,286046993.5,N
1505989395.7,286046993.6,N
1505989415.5,286046993.5,N
1505989435.3,286046993.7,N
1505989455.2,286046994.0,N
1505989475.9,286046991.8,P
1505989495.7,286046997.0,N
1505989515.6,286046996.5,N
1505989535.4,286046998.2,N
1505989555.2,286047000.6,N
1505989575.1,286047000.7,N
1505989576.0,286047000.7,N
1505989595.8,286047001.0,N
1505989615.6,286047000.7,N
1505989635.5,286046999.7,N
1505989655.3,286047001.5,N
1505989675.1,286047004.0,N
1505989695.9,286047005.1,N
1505989715.7,286047003.6,N
1505989735.5,286047000.2,N
1505989755.3,286047002.1,N
1505989775.2,286047002.5,N
1505989795.0,286047000.5,N
1505989795.9,286047000.5,N
1505989815.7,286046998.6,N
1505989835.6,286046998.8,N
1505989855.4,286046997.7,N
1505989875.2,286046996.4,N
1505989895.1,286046993.8,N
1505989896.0,286046993.8,N
1505989915.8,286046994.0,N
1505989935.6,286046992.6,N
1505989955.5,286046993.3,N
1505989975.3,286046995.5,N
1505989995.1,286046996.1,N
1505990015.9,286046993.7,N
1505990035.7,286046999.5,N
1505990055.5,286047002.6,N
1505990075.3,286047001.9,N
1505990095.2,286047000.1,N
1505990115.0,286046999.0,N
1505990115.9,286046999.0,N
1505990135.7,286046999.1,N
1505990155.6,286046998.8,N
1505990175.4,286046994.9,N
1505990195.2,286046995.9,N
1505990215.1,286046997.8,N
1505990216.0,286046997.8,N
1505990235.8,286046993.3,N
1505990255.6,286046992.6,N
1505990275.5,286046993.1,N
1505990295.3,286046994.0,N
1505990315.1,286046992.0,N
1505990335.9,286046992.6,N
1505990355.7,286046993.1,N
1505990375.5,286046990.6,P
1505990395.4,286046995.9,N
1505990415.2,286046995.8,N
1505990435.0,286046995.3,N
1505990435.9,286046995.3,N
1505990455.8,286046993.9,P
1505990475.6,286047000.8,N
1505990495.4,286047001.3,N
1505990515.3,286047003.8,N
1505990535.1,286047002.3,N
1505990555.8,286047000.6,N
1505990575.7,286047000.2,N
1505990595.5,286047001.5,N
1505990615.3,286047003.6,N
1505990635.2,286047001.6,N
1505990655.9,286047005.1,N
1505990675.7,286047003.0,N
1505990695.6,286047000.9,N
1505990715.4,286047000.8,N
1505990735.2,286047002.4,N
1505990755.0,286047003.8,N
1505990755.9,286047003.8,N
1505990775.8,286047001.4,N
1505990795.6,286047002.4,N
1505990815.4,286047003.3,N
1505990835.3,286047003.0,N
1505990855.1,286047000.1,N
1505990875.8,286047004.0,N
1505990895.7,286047005.9,N
1505990915.5,286047008.6,P
1505990935.3,286047005.0,N
1505990955.2,286047005.1,N
1505990975.9,286047003.6,N
1505990995.7,286047001.2,N
1505991015.6,286047004.2,N
1505991035.4,286047004.4,N
1505991055.2,286047004.6,N
1505991075.1,286047005.0,N
1505991076.0,286047005.0,N
1505991095.8,286047004.5,N
1505991115.6,286047005.3,N
1505991135.4,286047004.1,N
1505991155.3,286046997.6,N
1505991175.1,286046998.0,N
1505991195.8,286047001.3,N
1505991215.7,286047005.7,N
1505991235.5,286047001.6,N
1505991255.3,286046998.8,N
1505991275.2,286047000.0,N
1505991295.9,286046996.3,N
1505991315.7,286046993.9,N
1505991335.6,286046995.8,N
1505991355.4,286046997.0,N
1505991375.2,286046996.4,N
1505991395.1,286046994.8,N
1505991396.0,286046994.8,N
1505991415.8,286046990.6,N
1505991435.6,286046995.1,N
1505991455.4,286046997.1,N
1505991475.3,286046993.6,N
1505991495.1,286046993.7,N
1505991515.8,286046991.7,N
1505991535.7,286046993.2,N
1505991555.5,286046993.5,N
1505991575.3,286046993.6,N
1505991595.2,286046993.6,N
